Weather reports worldwide

Advertisment
Manresa, Spain (8174): temperature & dewpoint: 10.08.2018 18:00:00 - 16.08.2018 18:00:00 (CEST)Manresa, Spain (8174): wind speed & gusts: 10.08.2018 18:00:00 - 16.08.2018 18:00:00 (CEST)Manresa, Spain (8174): wind direction: 10.08.2018 18:00:00 - 16.08.2018 18:00:00 (CEST)Manresa, Spain (8174): reduced air pressure: 10.08.2018 18:00:00 - 16.08.2018 18:00:00 (CEST)Manresa, Spain (8174): visibility: 10.08.2018 18:00:00 - 16.08.2018 18:00:00 (CEST)Manresa, Spain (8174): sunshine duration: 10.08.2018 18:00:00 - 16.08.2018 18:00:00 (CEST)Manresa, Spain (8174): precipitation: 10.08.2018 18:00:00 - 16.08.2018 18:00:00 (CEST)
Date & Time tt [°C] td [°C] ff [km/h] ff [kn] fx [km/h] fx [kn] dd ppp [hPa] vv [km] sd [min] rr [mm]
16.08.2018 18:00:00 29,3 17,8 16 9 33 18 SSW 1012,3 20 43 0,0
16.08.2018 17:00:00 29,7 17,9 13 7 27 14 S 1012,4 20 35 0,0
16.08.2018 16:00:00 32,1 15,6 10 5 23 12 SW 1012,2 20 57 0,0
16.08.2018 15:00:00 31,8 14,4 8 5 23 12 SSE 1013,0 20 52 0,0
16.08.2018 14:00:00 30,6 15,1 9 5 21 11 SSW 1013,6 20 56 -
16.08.2018 13:00:00 29,9 15,3 7 4 18 10 S 1014,2 20 59 0,0
16.08.2018 12:00:00 28,6 16,2 5 3 12 6 S 1015,1 20 60 0,0
16.08.2018 11:00:00 26,2 17,9 3 2 9 5 SSE 1015,8 20 60 0,0
16.08.2018 10:00:00 24,1 18,3 4 2 8 4 NE 1016,0 20 60 0,0
16.08.2018 09:00:00 21,1 17,5 3 1 7 4 W 1016,5 20 4 0,0
16.08.2018 08:00:00 19,8 17,5 3 2 6 3 N 1016,4 19 0 -
16.08.2018 07:00:00 19,3 16,9 3 1 6 4 W 1016,5 20 0 0,0
16.08.2018 06:00:00 20,0 17,6 3 2 8 4 NW 1016,4 20 0 0,0
16.08.2018 05:00:00 20,8 17,8 4 2 8 5 NE 1016,4 17 0 0,0
16.08.2018 04:00:00 20,6 17,6 3 2 8 4 W 1017,0 20 0 0,0
16.08.2018 03:00:00 21,1 17,7 3 2 8 4 W 1017,3 20 0 0,0
16.08.2018 02:00:00 21,8 18,4 3 1 6 3 NNW 1017,3 20 0 -
16.08.2018 01:00:00 22,2 18,4 3 2 8 4 W 1017,6 20 0 0,0
16.08.2018 00:00:00 22,6 18,4 4 2 11 6 W 1017,7 20 0 0,0
15.08.2018 23:00:00 23,4 18,5 7 4 22 12 SSW 1017,3 20 0 0,0
15.08.2018 22:00:00 24,2 18,2 8 5 21 11 S 1016,8 20 0 0,0
15.08.2018 21:00:00 25,4 17,1 9 5 23 12 S 1015,7 20 33 0,0
15.08.2018 20:00:00 27,6 16,6 11 6 23 12 S 1015,2 2,3 60 -
15.08.2018 19:00:00 29,1 14,9 11 6 28 15 S 1014,7 20 60 0,0
15.08.2018 18:00:00 30,3 13,9 13 7 27 14 S 1014,6 20 60 0,0
15.08.2018 17:00:00 30,2 14,3 16 9 31 17 SSW 1014,9 20 51 0,0
15.08.2018 16:00:00 31,2 10,5 5 3 18 10 SSE 1015,2 20 58 0,0
15.08.2018 15:00:00 30,8 11,7 6 3 15 8 WSW 1015,9 20 60 0,0
15.08.2018 14:00:00 29,0 12,8 7 4 16 9 ESE 1016,6 20 60 -
15.08.2018 13:00:00 27,9 12,2 6 3 12 6 N 1017,4 20 60 0,0
15.08.2018 12:00:00 25,8 12,2 6 3 11 6 W 1018,1 20 60 0,0
15.08.2018 11:00:00 24,0 12,3 5 3 11 6 N 1018,6 20 60 0,0
15.08.2018 10:00:00 21,4 13,1 5 3 10 5 NE 1019,0 20 40 0,0
15.08.2018 09:00:00 20,4 12,3 4 2 8 5 NNW 1019,4 20 8 0,0
15.08.2018 08:00:00 18,5 12,2 3 2 12 7 NW 1019,3 20 0 -
15.08.2018 07:00:00 18,7 12,2 4 2 18 10 NNW 1018,8 20 0 0,0
15.08.2018 06:00:00 19,1 12,3 6 4 17 9 W 1018,7 20 0 0,0
15.08.2018 05:00:00 19,9 16,9 4 2 8 4 WSW 1018,4 20 0 0,0
15.08.2018 04:00:00 20,4 18,0 3 1 9 5 WNW 1018,1 20 0 0,0
15.08.2018 03:00:00 21,3 18,1 2 1 6 3 SSW 1018,1 20 0 0,0
15.08.2018 02:00:00 22,0 18,2 4 2 9 5 SW 1018,4 20 0 -
15.08.2018 01:00:00 22,5 18,2 5 3 13 7 SSW 1018,5 20 0 0,0
15.08.2018 00:00:00 22,5 18,2 8 4 15 8 S 1018,0 20 0 0,0
14.08.2018 23:00:00 22,8 18,3 6 4 21 11 S 1018,0 20 0 0,0
14.08.2018 22:00:00 23,5 17,9 9 5 26 14 S 1017,2 20 0 0,0
14.08.2018 21:00:00 24,5 17,5 12 7 26 14 S 1015,9 20 34 0,0
14.08.2018 20:00:00 27,2 16,8 10 6 27 15 S 1014,7 20 60 -
14.08.2018 19:00:00 29,7 15,8 10 6 22 12 S 1014,2 20 60 0,0
14.08.2018 18:00:00 30,7 9,6 12 6 26 14 W 1014,2 20 60 0,0
14.08.2018 17:00:00 30,8 9,0 14 8 32 17 W 1014,3 20 60 0,0
14.08.2018 16:00:00 30,4 9,3 14 7 27 15 W 1014,6 20 60 0,0
14.08.2018 15:00:00 29,4 10,5 15 8 32 17 W 1015,1 20 60 0,0
14.08.2018 14:00:00 28,7 10,9 12 7 27 15 W 1015,6 20 52 -
14.08.2018 13:00:00 - - - - - - - - - - -
14.08.2018 12:00:00 - - - - - - - - - - -
14.08.2018 11:00:00 - - - - - - - - - - -
14.08.2018 10:00:00 - - - - - - - - - - -
14.08.2018 09:00:00 - - - - - - - - - - -
14.08.2018 08:00:00 - - - - - - - - - - -
14.08.2018 07:00:00 - - - - - - - - - - -
14.08.2018 06:00:00 - - - - - - - - - - -
14.08.2018 05:00:00 - - - - - - - - - - -
14.08.2018 04:00:00 - - - - - - - - - - -
14.08.2018 03:00:00 - - - - - - - - - - -
14.08.2018 02:00:00 - - - - - - - - - - -
14.08.2018 01:00:00 - - - - - - - - - - -
14.08.2018 00:00:00 - - - - - - - - - - -
13.08.2018 23:00:00 - - - - - - - - - - -
13.08.2018 22:00:00 - - - - - - - - - - -
13.08.2018 21:00:00 - - - - - - - - - - -
13.08.2018 20:00:00 - - - - - - - - - - -
13.08.2018 19:00:00 - - - - - - - - - - -
13.08.2018 18:00:00 - - - - - - - - - - -
13.08.2018 17:00:00 - - - - - - - - - - -
13.08.2018 16:00:00 - - - - - - - - - - -
13.08.2018 15:00:00 - - - - - - - - - - -
13.08.2018 14:00:00 - - - - - - - - - - -
13.08.2018 13:00:00 - - - - - - - - - - -
13.08.2018 12:00:00 - - - - - - - - - - -
13.08.2018 11:00:00 - - - - - - - - - - -
13.08.2018 10:00:00 - - - - - - - - - - -
13.08.2018 09:00:00 - - - - - - - - - - -
13.08.2018 08:00:00 - - - - - - - - - - -
13.08.2018 07:00:00 - - - - - - - - - - -
13.08.2018 06:00:00 - - - - - - - - - - -
13.08.2018 05:00:00 - - - - - - - - - - -
13.08.2018 04:00:00 - - - - - - - - - - -
13.08.2018 03:00:00 - - - - - - - - - - -
13.08.2018 02:00:00 - - - - - - - - - - -
13.08.2018 01:00:00 - - - - - - - - - - -
13.08.2018 00:00:00 - - - - - - - - - - -
12.08.2018 23:00:00 - - - - - - - - - - -
12.08.2018 22:00:00 - - - - - - - - - - -
12.08.2018 21:00:00 - - - - - - - - - - -
12.08.2018 20:00:00 - - - - - - - - - - -
12.08.2018 19:00:00 - - - - - - - - - - -
12.08.2018 18:00:00 - - - - - - - - - - -
12.08.2018 17:00:00 - - - - - - - - - - -
12.08.2018 16:00:00 - - - - - - - - - - -
12.08.2018 15:00:00 - - - - - - - - - - -
12.08.2018 14:00:00 - - - - - - - - - - -
12.08.2018 13:00:00 - - - - - - - - - - -
12.08.2018 12:00:00 - - - - - - - - - - -
12.08.2018 11:00:00 - - - - - - - - - - -
12.08.2018 10:00:00 - - - - - - - - - - -
12.08.2018 09:00:00 - - - - - - - - - - -
12.08.2018 08:00:00 - - - - - - - - - - -
12.08.2018 07:00:00 - - - - - - - - - - -
12.08.2018 06:00:00 - - - - - - - - - - -
12.08.2018 05:00:00 - - - - - - - - - - -
12.08.2018 04:00:00 - - - - - - - - - - -
12.08.2018 03:00:00 - - - - - - - - - - -
12.08.2018 02:00:00 - - - - - - - - - - -
12.08.2018 01:00:00 - - - - - - - - - - -
12.08.2018 00:00:00 - - - - - - - - - - -
11.08.2018 23:00:00 - - - - - - - - - - -
11.08.2018 22:00:00 - - - - - - - - - - -
11.08.2018 21:00:00 - - - - - - - - - - -
11.08.2018 20:00:00 - - - - - - - - - - -
11.08.2018 19:00:00 - - - - - - - - - - -
11.08.2018 18:00:00 - - - - - - - - - - -
11.08.2018 17:00:00 - - - - - - - - - - -
11.08.2018 16:00:00 - - - - - - - - - - -
11.08.2018 15:00:00 - - - - - - - - - - -
11.08.2018 14:00:00 - - - - - - - - - - -
11.08.2018 13:00:00 - - - - - - - - - - -
11.08.2018 12:00:00 - - - - - - - - - - -
11.08.2018 11:00:00 - - - - - - - - - - -
11.08.2018 10:00:00 - - - - - - - - - - -
11.08.2018 09:00:00 - - - - - - - - - - -
11.08.2018 08:00:00 - - - - - - - - - - -
11.08.2018 07:00:00 - - - - - - - - - - -
11.08.2018 06:00:00 - - - - - - - - - - -
11.08.2018 05:00:00 - - - - - - - - - - -
11.08.2018 04:00:00 - - - - - - - - - - -
11.08.2018 03:00:00 - - - - - - - - - - -
11.08.2018 02:00:00 - - - - - - - - - - -
11.08.2018 01:00:00 - - - - - - - - - - -
11.08.2018 00:00:00 - - - - - - - - - - -
10.08.2018 23:00:00 - - - - - - - - - - -
10.08.2018 22:00:00 - - - - - - - - - - -
10.08.2018 21:00:00 - - - - - - - - - - -
10.08.2018 20:00:00 - - - - - - - - - - -
10.08.2018 19:00:00 - - - - - - - - - - -
10.08.2018 18:00:00 - - - - - - - - - - -

tt = temperature
td = dewpoint
ff = wind speed
fx = gusts
dd = wind direction
ppp = reduced air pressure
vv = visibility
sd = sunshine duration
rr = precipitation

Next stations